This is the latest recevied weather packets stored in our database for station/object KG0HG. If no packets are shown the sender has not sent any weather packets the latest 1 day(s).
| Time | Temp. | Humidity | Pressure | Rain* | Wind** | Luminosity | Snow |
|---|---|---|---|---|---|---|---|
| 1778031632 | 9.44° C | 94% | 1012.6 hPa | 0 mm | - | 0 W/m² | - |
| 1778031027 | 9.44° C | 93% | 1012 hPa | 0 mm | - | 0 W/m² | - |
| 1778030723 | 10° C | 93% | 1012.1 hPa | 0 mm | - | 0 W/m² | - |
| 1778030420 | 10° C | 93% | 1012.4 hPa | 0 mm | - | 0 W/m² | - |
| 1778030118 | 10° C | 92% | 1012.2 hPa | 0 mm | - | 0 W/m² | - |
| 1778029508 | 10° C | 91% | 1012.3 hPa | 0 mm | - | 0 W/m² | - |
| 1778028596 | 10° C | 90% | 1012.1 hPa | 0 mm | - | 3 W/m² | - |
| 1778027990 | 10.56° C | 89% | 1012.4 hPa | 0 mm | - | 3 W/m² | - |
| 1778027687 | 10.56° C | 89% | 1012.4 hPa | 0 mm | - | 4 W/m² | - |
| 1778027383 | 10.56° C | 88% | 1012 hPa | 0 mm | - | 7 W/m² | - |
| 1778026775 | 10.56° C | 86% | 1012 hPa | 0 mm | - | 11 W/m² | - |
| 1778025867 | 10.56° C | 86% | 1011.7 hPa | 0 mm | - | 25 W/m² | - |
| 1778025262 | 10.56° C | 86% | 1011.4 hPa | 0 mm | - | 28 W/m² | - |
| 1778024656 | 10.56° C | 87% | 1011.9 hPa | 0 mm | - | 38 W/m² | - |
| 1778023141 | 10.56° C | 86% | 1012.2 hPa | 0 mm | - | 25 W/m² | - |
| 1778021931 | 10° C | 84% | 1011.9 hPa | 0 mm | - | 21 W/m² | - |
| 1778020111 | 11.11° C | 86% | 1012 hPa | 0 mm | - | 43 W/m² | - |
| 1778018595 | 10° C | 86% | 1011.6 hPa | 0 mm | - | 55 W/m² | - |
| 1778016781 | 9.44° C | 86% | 1012.2 hPa | 0 mm | - | 135 W/m² | - |
| 1778016174 | 10° C | 89% | 1012.2 hPa | 0 mm | - | 74 W/m² | - |
| 1778015870 | 10° C | 88% | 1012.4 hPa | 0 mm | - | 67 W/m² | - |
| 1778015568 | 9.44° C | 88% | 1012.2 hPa | 0 mm | - | 95 W/m² | - |
| 1778014961 | 9.44° C | 88% | 1012.3 hPa | 0 mm | - | 58 W/m² | - |
| 1778012840 | 8.89° C | 91% | 1012.7 hPa | 0 mm | - | 70 W/m² | - |
| 1778012233 | 8.89° C | 92% | 1012.3 hPa | 0 mm | - | 42 W/m² | - |
* Rain latest hour (hover to see other rain measurements)
** Current wind speed in m/s (hover to see current wind gust speed)